Weather Roundup
Issued by NWS

Home | Current Version | Previous Version | Graphics & Text | Print | Product List | Glossary Off
Versions: 1 2 3 4 5 6 7 8 9 10 11 12 13 14 15 16 17 18 19 20 21 22 23 24 25 26 27 28 29 30 31 32 33 34 35 36 37 38 39 40 41 42 43 44 45 46 47 48 49 50

000
NZUS93 KARX 010110
HRRWXR

CURRENT HOURLY OBSERVATIONS ACROSS
MUCH OF THE UPPER MISSISSIPPI VALLEY
NATIONAL WEATHER SERVICE LA CROSSE WI
800 PM CDT SUN AUG 31 2014


...SOUTHEAST MINNESOTA...


CITY           SKY/WX    TMP DP  RH WIND       PRES   REMARKS
ROCHESTER      LGT RAIN  70  64  81 SW8       29.72F
ROCHESTER/MAYO CLOUDY    74  62  66 SW13G21   29.71F
WINONA         MOCLDY    70  64  83 SE6       29.73R THUNDER
AUSTIN         CLOUDY    68  64  88 S5        29.72R
ALBERT LEA     LGT RAIN  66  64  94 CALM      29.68F
DODGE CENTER   LGT RAIN  72  64  78 SW10      29.70F
PRESTON        CLOUDY    70  67  92 CALM      29.74F
OWATONNA       RAIN      70  63  78 S13       29.66F
FARIBAULT      CLOUDY    75  61  60 S8G20     29.66F
$$

...ELSEWHERE IN MINNESOTA...


CITY           SKY/WX    TMP DP  RH WIND       PRES   REMARKS
MINNEAPOLIS    MOCLDY    78  67  68 SW15      29.62F
INTNL FALLS    MOCLDY    65  63  93 W8        29.57F
DULUTH         NOT AVBL
RED WING       CLOUDY    81  63  54 SW17G25   29.62F
REDWOOD FALLS  LGT RAIN  71  68  90 S8        29.66R
MANKATO        CLOUDY    70  63  78 S12G22    29.64F
WORTHINGTON    CLOUDY    66  64  94 N3        29.66F
FAIRMONT       CLOUDY    66  59  77 S12G28    29.71R THUNDER
$$

...SOUTHWEST WISCONSIN...


CITY           SKY/WX    TMP DP  RH WIND       PRES   REMARKS
LA CROSSE      LGT RAIN  71  64  78 SW6       29.74S
PRAIRIE DU CHI MOCLDY    79  67  68 E5        29.73F
BOSCOBEL       MOCLDY    80  67  64 S3        29.76F
LONE ROCK      MOCLDY    79  68  69 E6        29.78F
PLATTEVILLE    MOCLDY    75  69  81 CALM      29.80F
FORT MC COY    CLOUDY    78  65  64 S10       29.75F
CAMP DOUGLAS   MOCLDY    75  70  83 SE6       29.77F
VIROQUA        FAIR      76  67  75 S6        29.77F
WIS DELLS      CLEAR     75  65  70 S9        29.80F
$$

...ELSEWHERE IN WISCONSIN...


CITY           SKY/WX    TMP DP  RH WIND       PRES   REMARKS
MILWAUKEE      PTCLDY    75  67  76 SE7       29.86F
MADISON        PTCLDY    79  67  66 S9        29.82F
GREEN BAY      CLOUDY    67  65  93 SE12      29.83F
EAU CLAIRE     MOCLDY    78  70  76 SE14      29.65F
BLACK RVR FLS  FAIR      77  67  71 S7        29.73F
MEDFORD        CLOUDY    72  67  82 SE8       29.77F
WAUSAU         CLEAR     73  66  78 SE9       29.77F
WIS RAPIDS     PTCLDY    75  68  78 SE6       29.79F
MARSHFIELD     PTCLDY    74  67  78 S9        29.76F
RICE LAKE      MOCLDY    71  63  77 SE9       29.66F THUNDER
$$

...NORTHEAST IOWA...


CITY           SKY/WX    TMP DP  RH WIND       PRES   REMARKS
WATERLOO       PTCLDY    80  71  74 S10       29.70F
DUBUQUE        PTCLDY    74  68  81 S10       29.79F
DECORAH        CLOUDY    77  72  83 CALM      29.74F
MASON CITY     MOCLDY    69  67  93 E6        29.70F
CHARLES CITY   MOCLDY    72  70  94 E6        29.72F
OELWEIN        CLOUDY    77  73  88 SE8       29.75F
$$

...ELSEWHERE IN IOWA...


CITY           SKY/WX    TMP DP  RH WIND       PRES   REMARKS
DES MOINES     CLOUDY    82  71  69 S17       29.67F
IOWA CITY      PTCLDY    79  73  82 SE12      29.76F
FORT DODGE     CLOUDY    72  66  83 E6        29.67R
MARSHALLTOWN   PTCLDY    79  71  76 SE12      29.68F
CEDAR RAPIDS   CLEAR     79  72  79 S10       29.74F
$$

...NORTHERN ILLINOIS...


CITY           SKY/WX    TMP DP  RH WIND       PRES   REMARKS
CHICAGO-OHARE  PTCLDY    80  67  64 SW6       29.88F
DUPAGE         CLEAR     75  68  78 S7        29.88F
CHICAGO-MIDWAY PTCLDY    82  69  64 SW12      29.89S
MOLINE         CLEAR     78  70  76 SE12      29.79F
ROCKFORD       PTCLDY    77  69  76 S10       29.86F
STERLING       CLEAR     77  70  78 SE6       29.84F
PEORIA         CLEAR     80  70  71 SE6       29.85F
$$

NOTE: "FAIR" INDICATES FEW OR NO CLOUDS BELOW 12,000 FEET WITH NO
SIGNIFICANT WEATHER AND/OR OBSTRUCTIONS TO VISIBILITY. WIND
SPEEDS ARE IN MILES-PER-HOUR.



USA.gov is the U.S. government's official web portal to all federal, state and local government web resources and services.